Hourly Data Report for October 19, 2016

All times are specified in Local Standard Time (LST). Add 1 hour to adjust for Daylight Saving Time where and when it is observed.

POND INLET A
NUNAVUT

72°41'22.000" N
77°58'08.000" W
61.60 m
2403206
71095
YIO

Download Data

Hourly Data (October 2016)
Hourly Data Report for October 19, 2016
Temp Definition
°C
Dew Point Temp Definition
°C
Rel Hum Definition
%
Wind Dir Definition
10's deg

Wind Spd Definition
km/h
Visibility Definition
km
Stn Press Definition
kPa
Hmdx Definition


Wind Chill Definition


Weather Definition


TIME
00:00 Legend Double Dagger -12.3 -14.3 85 16 15 16.1 101.20   -20 LegendNANA
01:00 Legend Double Dagger -12.1 -14.3 84 17 13 16.1 101.19   -19 LegendNANA
02:00 Legend Double Dagger -12.2 -14.5 83 17 11 16.1 101.19   -18 LegendNANA
03:00 Legend Double Dagger -11.6 -14.2 82 15 11 16.1 101.19   -18 LegendNANA
04:00 Legend Double Dagger -11.0 -13.8 80 15 5 16.1 101.16   -14 LegendNANA
05:00 Legend Double Dagger -10.9 -13.9 79 LegendMM 4 16.1 101.13   -13 LegendNANA
06:00 Legend Double Dagger -11.2 -13.7 82 21 4 16.1 101.09   -14 LegendNANA
07:00 Legend Double Dagger -11.1 -13.9 80 18 11 16.1 101.06   -17 LegendNANA
08:00 Legend Double Dagger -11.3 -13.9 81 16 15 16.1 101.02   -18 LegendNANA
09:00 Legend Double Dagger -11.7 -14.3 81 15 21 16.1 100.96   -20 Snow
10:00 Legend Double Dagger -11.5 -14.4 79 15 17 16.1 100.90   -19 Snow
11:00 Legend Double Dagger -11.4 -14.2 80 15 18 16.1 100.83   -19 Snow
12:00 Legend Double Dagger -11.3 -14.1 80 15 21 16.1 100.76   -20 LegendNANA
13:00 Legend Double Dagger -11.4 -14.0 81 16 21 16.1 100.71   -20 Snow
14:00 Legend Double Dagger -11.1 -13.8 81 16 22 16.1 100.65   -20 Snow
15:00 Legend Double Dagger -11.8 -13.8 85 15 21 9.7 100.60   -20 Snow
16:00 Legend Double Dagger -13.5 -15.8 83 14 18 16.1 100.54   -22 LegendNANA
17:00 Legend Double Dagger -13.9 -16.1 84 15 21 16.1 100.47   -23 LegendNANA
18:00 Legend Double Dagger -12.5 -14.7 84 15 17 6.4 100.42   -20 Snow
19:00 Legend Double Dagger -12.2 -14.4 84 14 15 6.4 100.37   -19 Snow
20:00 Legend Double Dagger -12.9 -15.2 83 15 15 16.1 100.28   -20 Snow
21:00 Legend Double Dagger -11.6 -13.6 85 14 9 4.8 100.21   -17 Snow
22:00 Legend Double Dagger -11.7 -13.7 85 9 4 11.3 100.13   -14 LegendNANA
23:00 Legend Double Dagger -11.3 -12.6 90 8 8 14.5 100.05   -16 Snow

Notes on Data Quality.

Legend

  • E = Estimated
  • M = Missing
  • NA = Not Available
  • ‡ = Partner data that is not subject to review by the National Climate Archives
Date modified: